Weather History for Charlottesville, VA

Change the Weather History Date:

Thursday, February 16, 2012

  Actual Average Record
Temperature  
Mean Temperature 44 °F 38 °F  
Max Temperature 46 °F 49 °F 77 °F (1954)
Min Temperature 42 °F 28 °F 4 °F (1905)
Degree Days  
Heating Degree Days 21 27  
Month to date heating degree days 376 447  
Since 1 July heating degree days 2526 3107  
Cooling Degree Days 0 0  
Month to date cooling degree days 0 0  
Year to date cooling degree days 0 0  
Moisture  
Dew Point 39 °F    
Average Humidity 75    
Maximum Humidity 96    
Minimum Humidity 53    
Precipitation  
Precipitation 0.24 in 0.11 in 1.06 in (1958)
Month to date precipitation 0.95 1.42  
Year to date precipitation 3.14 4.19  
Sea Level Pressure  
Sea Level Pressure 30.09 in    
Wind  
Wind Speed 3 mph (South)    
Max Wind Speed 9 mph    
Max Gust Speed 12 mph    
Visibility 5 miles    
Events Fog , Rain    
T = Trace of Precipitation, MM = Missing Value Source: NWS Daily Summary

Daily Weather History Graph

Daily Weather History Graph

Search for Another Location

Airport:

Trip Planner

Search our weather history database for the weather conditions in past years. The results will help you decide how hot, cold, wet, or windy it might be!

Date:

Astronomy

Feb. 16, 2012 Rise Set
Actual Time 7:03 AM EST 5:52 PM EST
Civil Twilight 6:36 AM EST 6:19 PM EST
Nautical Twilight 6:05 AM EST 6:50 PM EST
Astronomical Twilight 5:35 AM EST 7:21 PM EST
Moon 2:54 AM EST (2/16) 12:45 PM EST (2/16)
Length of Visible Light 11h 43m
Length of Day
10h 49m
Waning Crescent, 28% of the Moon is Illuminated
Feb 16
Waning Crescent
Feb 21
New
Feb 29
First Quarter
Mar 8
Full
Mar 14
Last Quarter

Hourly Weather History & Observations

Time (EST) Temp. Windchill Dew Point Humidity Pressure Visibility Wind Dir Wind Speed Gust Speed Precip Events Conditions
12:53 AM 45.0 °F - 30.0 °F 56% 30.26 in 10.0 mi Calm Calm - N/A   Mostly Cloudy
1:53 AM 45.0 °F - 28.9 °F 53% 30.24 in 10.0 mi Calm Calm - N/A   Partly Cloudy
2:53 AM 44.6 °F - 28.4 °F 53% 30.24 in 10.0 mi Calm Calm - N/A   Partly Cloudy
3:53 AM 43.0 °F - 30.0 °F 60% 30.22 in 10.0 mi Calm Calm - N/A   Overcast
4:53 AM 43.0 °F - 30.9 °F 62% 30.23 in 10.0 mi Calm Calm - N/A   Mostly Cloudy
5:53 AM 43.0 °F 38.2 °F 30.9 °F 62% 30.22 in 10.0 mi SSW 8.1 mph - N/A   Overcast
6:53 AM 44.1 °F 40.1 °F 30.9 °F 60% 30.21 in 10.0 mi South 6.9 mph - 0.00 in Rain Light Rain
7:53 AM 43.0 °F 41.3 °F 34.0 °F 71% 30.21 in 10.0 mi SSW 3.5 mph - 0.00 in   Overcast
8:53 AM 44.1 °F 40.1 °F 34.0 °F 68% 30.19 in 10.0 mi SSW 6.9 mph - N/A   Overcast
9:53 AM 44.1 °F 41.5 °F 36.0 °F 73% 30.20 in 10.0 mi South 4.6 mph - 0.00 in Rain Light Rain
10:53 AM 43.0 °F - 37.9 °F 82% 30.17 in 4.0 mi Calm Calm - 0.06 in Rain Light Rain
11:53 AM 44.1 °F 39.5 °F 41.0 °F 89% 30.16 in 6.0 mi South 8.1 mph - 0.07 in Rain Light Rain
12:53 PM 44.1 °F 41.5 °F 41.0 °F 89% 30.11 in 10.0 mi South 4.6 mph - 0.02 in   Overcast
1:46 PM 44.6 °F - 42.8 °F 93% 30.10 in 2.0 mi Calm Calm - 0.02 in Rain Light Rain
1:53 PM 45.0 °F - 42.1 °F 90% 30.10 in 2.0 mi Calm Calm - 0.03 in Rain Light Rain
2:00 PM 44.6 °F - 42.8 °F 93% 30.09 in 2.5 mi Calm Calm - 0.01 in Rain Light Rain
2:08 PM 44.6 °F - 42.8 °F 93% 30.08 in 2.0 mi Calm Calm - 0.01 in Rain Light Rain
2:53 PM 45.0 °F 43.5 °F 42.1 °F 90% 30.08 in 2.0 mi South 3.5 mph - 0.05 in Rain Light Rain
3:53 PM 46.0 °F 42.5 °F 43.0 °F 89% 30.04 in 4.0 mi South 6.9 mph - 0.01 in   Overcast
4:04 PM 44.6 °F 41.4 °F 42.8 °F 93% 30.03 in 9.0 mi South 5.8 mph - N/A   Overcast
4:53 PM 45.0 °F 41.8 °F 42.1 °F 90% 30.02 in 8.0 mi SSE 5.8 mph - 0.00 in   Overcast
5:14 PM 44.6 °F 43.1 °F 42.8 °F 93% 30.03 in 8.0 mi South 3.5 mph - N/A   Overcast
6:53 PM 45.0 °F 42.6 °F 42.1 °F 90% 30.04 in 7.0 mi SE 4.6 mph - N/A   Overcast
7:53 PM 43.0 °F 40.3 °F 41.0 °F 93% 30.02 in 7.0 mi SSW 4.6 mph - N/A   Mostly Cloudy
8:16 PM 42.8 °F - 41.0 °F 93% 30.02 in 2.5 mi Calm Calm - N/A   Mostly Cloudy
8:23 PM 42.8 °F - 41.0 °F 93% 30.02 in 6.0 mi Calm Calm - N/A   Overcast
8:44 PM 42.8 °F - 41.0 °F 93% 30.02 in 6.0 mi Calm Calm - N/A   Overcast
8:53 PM 44.1 °F - 41.0 °F 89% 30.02 in 6.0 mi Calm Calm - N/A   Overcast
9:00 PM 42.8 °F - 41.0 °F 93% 30.02 in 2.0 mi Calm Calm - N/A   Overcast
9:32 PM 44.6 °F - 42.8 °F 93% 30.02 in 3.0 mi Calm Calm - N/A   Overcast
9:40 PM 44.6 °F - 42.8 °F 93% 30.02 in 2.5 mi Calm Calm - N/A   Overcast
9:47 PM 44.6 °F - 42.8 °F 93% 30.02 in 3.0 mi Calm Calm - N/A   Overcast
9:53 PM 44.1 °F - 42.1 °F 93% 30.02 in 2.5 mi Calm Calm - N/A   Overcast
10:11 PM 44.6 °F - 42.8 °F 93% 30.01 in 3.0 mi Calm Calm - N/A   Overcast
10:26 PM 44.6 °F - 42.8 °F 93% 30.02 in 2.5 mi Calm Calm - N/A   Overcast
10:33 PM 44.6 °F - 42.8 °F 93% 30.02 in 4.0 mi Calm Calm - N/A   Overcast
10:44 PM 44.6 °F - 42.8 °F 93% 30.02 in 2.0 mi Calm Calm - N/A   Overcast
10:53 PM 44.1 °F - 42.1 °F 93% 30.03 in 3.0 mi Calm Calm - N/A   Overcast
11:04 PM 42.8 °F 41.1 °F 42.8 °F 100% 30.02 in 2.5 mi SSE 3.5 mph - N/A   Overcast
11:13 PM 42.8 °F 41.1 °F 42.8 °F 100% 30.01 in 1.2 mi SE 3.5 mph - N/A   Overcast
11:44 PM 42.8 °F - 41.0 °F 93% 30.00 in 0.5 mi Calm Calm - N/A Fog Fog
11:53 PM 43.0 °F - 41.0 °F 93% 30.00 in 0.5 mi Calm Calm - N/A Fog Fog